User: anonymous   Login
Location: Unspecified
(0.0000°N, 0.0000°E)
Time: 18:09:07
(UTC+00:00)
Language:

Kyokko - Orbit

View from above orbital plane
View from above orbital plane
View from above satellite
View from above satellite

Ground track
Ground track

The orbit data is extracted from the following two-line orbital elements,

1 10664U 78014A   23273.25096746  .00000208  00000-0  29327-3 0  9999
2 10664  65.3805 359.5917 1910529 255.3699  82.8819 10.75617170776170
Epoch (UTC): 30 September 2023 06:01:23
Eccentricity: 0.1910529
inclination: 65.3805°
perigee height: 634 km
apogee height: 3947 km
right ascension of ascending node: 359.5917°
argument of perigee: 255.3699°
revolutions per day: 10.75617170
mean anomaly at epoch: 82.8819°
orbit number at epoch: 77617

The dashed part of the orbit path shows where the satellite is in the earth's shadow,  

DLR